London-Corbin, KY

2:06 AM EDT on July 26, 2017 (GMT -0400)
London-Corbin / McKee

Weather History for KLOZ - December, 2012

Change the Weather History Date:

Friday, December 21, 2012

  Actual Average Record
Temperature  
Mean Temperature 32 °F 37 °F  
Max Temperature 36 °F 46 °F 72 °F (1967)
Min Temperature 27 °F 28 °F 0 °F (1960)
Degree Days  
Heating Degree Days 33 28  
Month to date heating degree days 372 536  
Since 1 July heating degree days 1426 1366  
Cooling Degree Days 0 0  
Month to date cooling degree days 0 0  
Year to date cooling degree days 1226 1190  
Moisture  
Dew Point 22 °F    
Average Humidity 71    
Maximum Humidity 85    
Minimum Humidity 56    
Precipitation  
Precipitation T in 0.13 in 1.47 in (1981)
Month to date precipitation 4.61 2.97  
Year to date precipitation 44.73  
Sea Level Pressure  
Sea Level Pressure 29.90 in    
Wind  
Wind Speed 17 mph (West)    
Max Wind Speed 33 mph    
Max Gust Speed 41 mph    
Visibility 8 miles    
Events Snow    
T = Trace of Precipitation, MM = Missing Value Source: NWS Daily Summary

Daily Weather History Graph

Daily Weather History Graph

Search for Another Location

Airport or City:

Trip Planner

Search our weather history database for the weather conditions in past years. The results will help you decide how hot, cold, wet, or windy it might be!

Date:

Astronomy

Dec. 21, 2012 Rise Set
Actual Time 7:46 AM EST 5:23 PM EST
Civil Twilight 7:17 AM EST 5:52 PM EST
Nautical Twilight 6:44 AM EST 6:24 PM EST
Astronomical Twilight 6:12 AM EST 6:56 PM EST
Moon 1:04 PM EST (12/21) 1:38 AM EST (12/21)
Length of Visible Light 10h 34m
Length of Day
9h 36m
Waxing Gibbous, 64% of the Moon is Illuminated
Dec 21
Waxing Gibbous
Dec 28
Full
Jan 4
Last Quarter
Jan 11
New
Jan 18
First Quarter

Hourly Weather History & Observations

Time (EST) Temp. Windchill Dew Point Humidity Pressure Visibility Wind Dir Wind Speed Gust Speed Precip Events Conditions
12:53 AM 33.1 °F 21.5 °F 28.0 °F 82% 29.73 in 10.0 mi West 19.6 mph 25.3 mph 0.00 in   Overcast
1:53 AM 32.0 °F 17.9 °F 27.0 °F 82% 29.73 in 10.0 mi West 28.8 mph 36.8 mph 0.00 in   Overcast
2:53 AM 30.9 °F 19.4 °F 24.1 °F 76% 29.75 in 10.0 mi West 17.3 mph 35.7 mph 0.00 in   Overcast
3:53 AM 30.9 °F 19.4 °F 23.0 °F 72% 29.76 in 10.0 mi West 17.3 mph 39.1 mph 0.00 in Snow Light Snow
4:53 AM 30.0 °F 15.7 °F 21.9 °F 72% 29.77 in 8.0 mi West 26.5 mph 35.7 mph 0.00 in Snow Light Snow
5:53 AM 30.0 °F 17.5 °F 21.9 °F 72% 29.79 in 10.0 mi West 19.6 mph 35.7 mph 0.00 in   Overcast
6:53 AM 28.9 °F 16.5 °F 21.9 °F 75% 29.81 in 10.0 mi West 18.4 mph 27.6 mph 0.00 in   Overcast
7:53 AM 28.9 °F 17.3 °F 21.9 °F 75% 29.83 in 10.0 mi West 16.1 mph 32.2 mph 0.00 in   Overcast
8:27 AM 28.4 °F 15.4 °F 21.2 °F 74% 29.81 in 2.5 mi West 19.6 mph 33.4 mph 0.00 in Snow Light Snow
8:36 AM 28.4 °F 17.0 °F 21.2 °F 74% 29.82 in 6.0 mi West 15.0 mph 28.8 mph 0.00 in Snow Light Snow
8:53 AM 28.0 °F 16.1 °F 21.9 °F 78% 29.86 in 2.5 mi West 16.1 mph 29.9 mph 0.00 in Snow Light Snow
9:01 AM 28.4 °F 17.0 °F 21.2 °F 74% 29.83 in 4.0 mi West 15.0 mph 24.2 mph 0.00 in Snow Light Snow
9:15 AM 28.4 °F 17.0 °F 21.2 °F 74% 29.84 in 2.5 mi West 15.0 mph 26.5 mph 0.00 in Snow Light Snow
9:35 AM 28.4 °F 15.4 °F 23.0 °F 80% 29.85 in 1.2 mi West 19.6 mph 24.2 mph 0.00 in Snow Light Snow
9:50 AM 28.4 °F 17.0 °F 23.0 °F 80% 29.85 in 0.8 mi West 15.0 mph 29.9 mph 0.00 in Snow Light Snow
9:53 AM 28.0 °F 17.0 °F 24.1 °F 85% 29.88 in 0.8 mi West 13.8 mph 29.9 mph 0.00 in Snow Light Snow
10:08 AM 28.4 °F 16.2 °F 23.0 °F 80% 29.85 in 1.2 mi West 17.3 mph 28.8 mph 0.00 in Snow Light Snow
10:20 AM 28.4 °F 16.6 °F 23.0 °F 80% 29.86 in 3.0 mi West 16.1 mph 25.3 mph 0.00 in Snow Light Snow
10:53 AM 28.9 °F 16.9 °F 21.9 °F 75% 29.90 in 9.0 mi West 17.3 mph 26.5 mph 0.00 in   Overcast
11:53 AM 28.9 °F 15.1 °F 21.0 °F 72% 29.91 in 10.0 mi West 23.0 mph 31.1 mph N/A   Overcast
12:53 PM 30.0 °F 18.7 °F 21.0 °F 69% 29.91 in 10.0 mi West 16.1 mph 27.6 mph N/A   Overcast
1:31 PM 30.2 °F 19.8 °F 21.2 °F 69% 29.89 in 10.0 mi West 13.8 mph 26.5 mph N/A   Overcast
1:53 PM 32.0 °F 21.6 °F 21.9 °F 66% 29.91 in 10.0 mi West 15.0 mph 28.8 mph N/A   Overcast
2:53 PM 34.0 °F 22.7 °F 21.9 °F 61% 29.93 in 10.0 mi West 19.6 mph 26.5 mph N/A   Overcast
3:53 PM 35.1 °F 23.8 °F 21.0 °F 57% 29.95 in 10.0 mi WNW 20.7 mph 36.8 mph N/A   Overcast
4:53 PM 34.0 °F 24.2 °F 21.0 °F 59% 29.99 in 10.0 mi West 15.0 mph 29.9 mph N/A   Overcast
5:53 PM 34.0 °F 24.2 °F 21.9 °F 61% 30.02 in 10.0 mi WNW 15.0 mph 23.0 mph N/A   Overcast
6:53 PM 33.1 °F 23.0 °F 21.0 °F 61% 30.06 in 10.0 mi WNW 15.0 mph 24.2 mph N/A   Overcast
7:53 PM 32.0 °F 21.6 °F 19.9 °F 61% 30.09 in 10.0 mi West 15.0 mph 21.9 mph N/A   Overcast
8:53 PM 30.9 °F 22.2 °F 19.9 °F 64% 30.12 in 10.0 mi WNW 10.4 mph - N/A   Mostly Cloudy
9:53 PM 30.0 °F 20.5 °F 18.0 °F 61% 30.14 in 10.0 mi West 11.5 mph - N/A   Overcast
10:53 PM 28.9 °F 18.2 °F 17.1 °F 61% 30.16 in 10.0 mi WNW 13.8 mph 19.6 mph N/A   Mostly Cloudy
11:53 PM 27.0 °F 19.5 °F 17.1 °F 66% 30.17 in 10.0 mi WNW 6.9 mph - N/A   Clear